• In Hungary
  • List of Countries
  • For 7 days
  • Water Temperature
  • Satellite Maps
  • Weather Map
  • News
  • Weather Widgets
  • user-avatar
    Login

    Hourly Weather Krasyukovskaya

    Today, 23 October, Tuesday

    Time Temperature Precipitation Wind Pressure Humidity
    00:00 +15°C° 0.3 mm 2 mps 761 mmHg 81%
    01:00 +14°C° 0 mm 2 mps 760 mmHg 82%
    02:00 +14°C° 0 mm 2 mps 760 mmHg 83%
    03:00 +15°C° 0 mm 2 mps 760 mmHg 85%
    04:00 +15°C° 0 mm 2 mps 760 mmHg 87%
    05:00 +14°C° 0 mm 3 mps 759 mmHg 89%
    06:00 +14°C° 0 mm 3 mps 759 mmHg 90%
    07:00 +14°C° 0 mm 4 mps 760 mmHg 88%
    08:00 +14°C° 0 mm 4 mps 760 mmHg 86%
    09:00 +14°C° 0 mm 5 mps 760 mmHg 83%
    10:00 +14°C° 0 mm 5 mps 760 mmHg 79%
    11:00 +14°C° 0 mm 5 mps 760 mmHg 75%
    12:00 +14°C° 0 mm 5 mps 760 mmHg 71%
    13:00 +15°C° 0 mm 5 mps 759 mmHg 65%
    14:00 +15°C° 0 mm 5 mps 759 mmHg 60%
    15:00 +15°C° 0 mm 5 mps 758 mmHg 53%
    16:00 +14°C° 0 mm 4 mps 758 mmHg 56%
    17:00 +13°C° 0 mm 4 mps 758 mmHg 59%
    18:00 +12°C° 0 mm 3 mps 758 mmHg 62%
    19:00 +12°C° 0 mm 3 mps 758 mmHg 65%
    20:00 +12°C° 0 mm 4 mps 757 mmHg 68%
    21:00 +11°C° 0 mm 4 mps 757 mmHg 71%
    22:00 +11°C° 0 mm 4 mps 757 mmHg 74%
    23:00 +11°C° 0 mm 4 mps 756 mmHg 77%

    Tomorrow, 24 October, Wednesday

    Time Temperature Precipitation Wind Pressure Humidity
    00:00 +11°C° 0 mm 4 mps 756 mmHg 80%
    01:00 +10°C° 0 mm 3 mps 756 mmHg 82%
    02:00 +10°C° 0 mm 3 mps 755 mmHg 83%
    03:00 +10°C° 0 mm 3 mps 755 mmHg 85%
    04:00 +10°C° 0 mm 3 mps 754 mmHg 85%
    05:00 +10°C° 0 mm 3 mps 754 mmHg 86%
    06:00 +9°C° 0 mm 3 mps 753 mmHg 87%
    07:00 +11°C° 0 mm 4 mps 752 mmHg 84%
    08:00 +12°C° 0 mm 5 mps 752 mmHg 81%
    09:00 +13°C° 0 mm 6 mps 751 mmHg 78%
    10:00 +14°C° 0 mm 7 mps 750 mmHg 72%
    11:00 +16°C° 0 mm 7 mps 749 mmHg 66%
    12:00 +17°C° 0 mm 8 mps 748 mmHg 59%
    13:00 +17°C° 0.2 mm 8 mps 747 mmHg 60%
    14:00 +16°C° 0.2 mm 8 mps 747 mmHg 61%
    15:00 +16°C° 0.2 mm 8 mps 746 mmHg 63%
    16:00 +16°C° 0.3 mm 7 mps 746 mmHg 67%
    17:00 +15°C° 0.3 mm 6 mps 745 mmHg 71%
    18:00 +14°C° 0.3 mm 5 mps 745 mmHg 75%
    19:00 +14°C° 0.5 mm 5 mps 745 mmHg 79%
    20:00 +13°C° 0.5 mm 5 mps 744 mmHg 82%
    21:00 +13°C° 0.5 mm 5 mps 744 mmHg 85%
    22:00 +13°C° 0.7 mm 5 mps 743 mmHg 85%
    23:00 +13°C° 0.7 mm 5 mps 743 mmHg 85%

    Day after tomorrow, 25 October, Thursday

    Time Temperature Precipitation Wind Pressure Humidity
    00:00 +13°C° 0.7 mm 5 mps 743 mmHg 86%
    01:00 +13°C° 0.2 mm 5 mps 742 mmHg 85%
    02:00 +12°C° 0.2 mm 5 mps 742 mmHg 85%
    03:00 +12°C° 0.2 mm 5 mps 742 mmHg 85%
    04:00 +12°C° 0.2 mm 5 mps 741 mmHg 86%
    05:00 +11°C° 0.2 mm 6 mps 741 mmHg 87%
    06:00 +11°C° 0.2 mm 6 mps 741 mmHg 87%
    07:00 +11°C° 0.2 mm 6 mps 742 mmHg 83%
    08:00 +10°C° 0.2 mm 7 mps 742 mmHg 79%
    09:00 +10°C° 0.2 mm 7 mps 743 mmHg 74%
    10:00 +10°C° 0 mm 7 mps 744 mmHg 69%
    11:00 +10°C° 0 mm 7 mps 745 mmHg 64%
    12:00 +10°C° 0 mm 7 mps 745 mmHg 58%
    13:00 +10°C° 0 mm 7 mps 746 mmHg 56%
    14:00 +10°C° 0 mm 7 mps 746 mmHg 54%
    15:00 +10°C° 0 mm 7 mps 747 mmHg 52%
    16:00 +10°C° 0 mm 6 mps 747 mmHg 54%
    17:00 +9°C° 0 mm 6 mps 748 mmHg 57%
    18:00 +9°C° 0 mm 5 mps 748 mmHg 60%
    19:00 +8°C° 0 mm 5 mps 748 mmHg 63%
    20:00 +8°C° 0 mm 4 mps 749 mmHg 66%
    21:00 +7°C° 0 mm 4 mps 749 mmHg 69%
    22:00 +7°C° 0 mm 4 mps 750 mmHg 70%
    23:00 +7°C° 0 mm 4 mps 750 mmHg 72%

    26 October, Friday

    Time Temperature Precipitation Wind Pressure Humidity
    00:00 +6°C° 0 mm 4 mps 750 mmHg 73%
    01:00 +6°C° 0 mm 4 mps 751 mmHg 75%
    02:00 +6°C° 0 mm 4 mps 751 mmHg 77%
    03:00 +5°C° 0 mm 4 mps 751 mmHg 79%
    04:00 +5°C° 0 mm 3 mps 752 mmHg 79%
    05:00 +5°C° 0 mm 3 mps 752 mmHg 79%
    06:00 +5°C° 0 mm 3 mps 752 mmHg 79%
    07:00 +6°C° 0 mm 4 mps 753 mmHg 72%
    08:00 +6°C° 0 mm 4 mps 753 mmHg 65%
    09:00 +7°C° 0 mm 4 mps 753 mmHg 58%
    10:00 +8°C° 0.1 mm 5 mps 753 mmHg 57%
    11:00 +9°C° 0.1 mm 5 mps 753 mmHg 55%
    12:00 +9°C° 0.1 mm 5 mps 752 mmHg 53%
    13:00 +9°C° 1 mm 5 mps 752 mmHg 61%
    14:00 +9°C° 1 mm 5 mps 752 mmHg 69%
    15:00 +8°C° 1 mm 6 mps 752 mmHg 77%
    16:00 +8°C° 0.2 mm 6 mps 752 mmHg 77%
    17:00 +7°C° 0.2 mm 6 mps 753 mmHg 77%
    18:00 +7°C° 0.2 mm 5 mps 753 mmHg 77%
    19:00 +7°C° 0 mm 5 mps 754 mmHg 78%
    20:00 +6°C° 0 mm 5 mps 755 mmHg 79%
    21:00 +6°C° 0 mm 4 mps 756 mmHg 80%
    22:00 +6°C° 0 mm 4 mps 757 mmHg 79%
    23:00 +6°C° 0 mm 4 mps 757 mmHg 78%

    27 October, Saturday

    Time Temperature Precipitation Wind Pressure Humidity
    00:00 +6°C° 0 mm 4 mps 758 mmHg 78%
    01:00 +6°C° 0 mm 4 mps 759 mmHg 77%
    02:00 +5°C° 0 mm 4 mps 760 mmHg 77%
    03:00 +5°C° 0 mm 4 mps 760 mmHg 77%
    04:00 +5°C° 0 mm 3 mps 761 mmHg 78%
    05:00 +5°C° 0 mm 3 mps 761 mmHg 80%
    06:00 +5°C° 0 mm 3 mps 762 mmHg 81%
    07:00 +6°C° 0 mm 4 mps 762 mmHg 77%
    08:00 +7°C° 0 mm 4 mps 762 mmHg 72%
    09:00 +8°C° 0 mm 4 mps 763 mmHg 68%
    10:00 +10°C° 0 mm 5 mps 763 mmHg 64%
    11:00 +11°C° 0 mm 6 mps 763 mmHg 59%
    12:00 +14°C° 0 mm 7 mps 762 mmHg 55%
    13:00 +13°C° 0 mm 6 mps 762 mmHg 58%
    14:00 +13°C° 0 mm 5 mps 762 mmHg 61%
    15:00 +13°C° 0 mm 5 mps 761 mmHg 65%
    16:00 +13°C° 0 mm 5 mps 761 mmHg 68%
    17:00 +13°C° 0 mm 5 mps 761 mmHg 72%
    18:00 +13°C° 0 mm 5 mps 761 mmHg 75%
    19:00 +13°C° 0 mm 6 mps 761 mmHg 76%
    20:00 +12°C° 0 mm 7 mps 761 mmHg 76%
    21:00 +13°C° 0 mm 8 mps 761 mmHg 77%
    22:00 +14°C° 0 mm 7 mps 761 mmHg 77%
    23:00 +14°C° 0 mm 7 mps 761 mmHg 76%

    28 October, Sunday

    Time Temperature Precipitation Wind Pressure Humidity
    00:00 +14°C° 0 mm 7 mps 761 mmHg 76%
    01:00 +14°C° 0 mm 7 mps 761 mmHg 77%
    02:00 +14°C° 0 mm 7 mps 761 mmHg 77%
    03:00 +14°C° 0 mm 7 mps 761 mmHg 78%
    04:00 +14°C° 0 mm 6 mps 762 mmHg 79%
    05:00 +14°C° 0 mm 6 mps 762 mmHg 80%
    06:00 +14°C° 0 mm 6 mps 762 mmHg 81%
    07:00 +14°C° 0 mm 6 mps 763 mmHg 78%
    08:00 +15°C° 0 mm 6 mps 763 mmHg 75%
    09:00 +16°C° 0 mm 7 mps 764 mmHg 72%
    10:00 +17°C° 0 mm 7 mps 764 mmHg 66%
    11:00 +18°C° 0 mm 7 mps 764 mmHg 60%
    12:00 +20°C° 0 mm 7 mps 764 mmHg 54%
    13:00 +21°C° 0 mm 7 mps 764 mmHg 53%
    14:00 +21°C° 0 mm 6 mps 764 mmHg 52%
    15:00 +21°C° 0 mm 6 mps 764 mmHg 51%
    16:00 +20°C° 0 mm 5 mps 764 mmHg 56%
    17:00 +19°C° 0 mm 4 mps 765 mmHg 61%
    18:00 +17°C° 0 mm 3 mps 765 mmHg 67%
    19:00 +17°C° 0 mm 3 mps 765 mmHg 69%
    20:00 +16°C° 0 mm 3 mps 765 mmHg 72%
    21:00 +16°C° 0 mm 2 mps 766 mmHg 75%
    22:00 +16°C° 0 mm 3 mps 766 mmHg 77%
    23:00 +14°C° 0 mm 3 mps 766 mmHg 79%

    29 October, Monday

    Time Temperature Precipitation Wind Pressure Humidity
    00:00 +14°C° 0 mm 3 mps 766 mmHg 80%
    01:00 +14°C° 0 mm 3 mps 766 mmHg 82%
    02:00 +13°C° 0 mm 3 mps 766 mmHg 84%
    03:00 +13°C° 0 mm 3 mps 766 mmHg 86%
    04:00 +13°C° 0 mm 3 mps 766 mmHg 86%
    05:00 +13°C° 0 mm 3 mps 766 mmHg 86%
    06:00 +13°C° 0 mm 2 mps 766 mmHg 86%
    07:00 +13°C° 0 mm 3 mps 766 mmHg 79%
    08:00 +14°C° 0 mm 3 mps 766 mmHg 72%
    09:00 +16°C° 0 mm 3 mps 766 mmHg 65%
    10:00 +18°C° 0 mm 3 mps 766 mmHg 56%
    11:00 +19°C° 0 mm 4 mps 766 mmHg 47%
    12:00 +21°C° 0 mm 4 mps 766 mmHg 38%
    13:00 +21°C° 0 mm 4 mps 766 mmHg 36%
    14:00 +22°C° 0 mm 4 mps 765 mmHg 34%
    15:00 +22°C° 0 mm 3 mps 765 mmHg 32%
    16:00 +21°C° 0 mm 3 mps 765 mmHg 35%
    17:00 +19°C° 0 mm 3 mps 765 mmHg 39%
    18:00 +18°C° 0 mm 2 mps 764 mmHg 42%
    19:00 +17°C° 0 mm 2 mps 764 mmHg 43%
    20:00 +17°C° 0 mm 2 mps 764 mmHg 45%
    21:00 +16°C° 0 mm 2 mps 764 mmHg 46%
    22:00 +16°C° 0 mm 2 mps 764 mmHg 48%
    23:00 +15°C° 0 mm 2 mps 764 mmHg 49%
    Show more